STARLINK-34270

Last updated on Thu Jul 03 2025 00:02:06 GMT+0000 (Coordinated Universal Time)

1 64355U 25126M 25183.58335648 -.01413438 00000+0 -17090-1 0 9993 2 64355 69.9991 310.2143 0003147 269.4884 314.5702 15.63227519 4320
UTC large
Height (km)
Speed (km/s)
/
Latitude / Longitude
Inclination (degrees)
Orbital Period (minutes)
Azimuth
Elevation
Range (km)
Doppler Factor

Next 0 passes for location: London (51.5072 / 0.1276)

Sorry there are no passes over London.